Year,Month,Day,Hour,Minute,Value (Times are PST for temperature in C)
2015,07,04,00,00,23.80
2015,07,04,00,01,23.80
2015,07,04,00,02,23.80
2015,07,04,00,03,23.80
2015,07,04,00,04,23.80
2015,07,04,00,05,23.80
2015,07,04,00,06,23.80
2015,07,04,00,07,23.80
2015,07,04,00,08,23.80
2015,07,04,00,09,23.80
2015,07,04,00,10,23.90
2015,07,04,00,11,23.90
2015,07,04,00,12,23.90
2015,07,04,00,13,23.90
2015,07,04,00,14,23.90
2015,07,04,00,15,23.90
2015,07,04,00,16,23.90
2015,07,04,00,17,23.90
2015,07,04,00,18,23.80
2015,07,04,00,19,23.80
2015,07,04,00,20,23.80
2015,07,04,00,21,23.80
2015,07,04,00,22,23.80
2015,07,04,00,23,23.80
2015,07,04,00,24,23.80
2015,07,04,00,25,23.80
2015,07,04,00,26,23.70
2015,07,04,00,27,23.70
2015,07,04,00,28,23.70
2015,07,04,00,29,23.70
2015,07,04,00,30,23.70
2015,07,04,00,31,23.70
2015,07,04,00,32,23.70
2015,07,04,00,33,23.60
2015,07,04,00,34,23.60
2015,07,04,00,35,23.60
2015,07,04,00,36,23.60
2015,07,04,00,37,23.60
2015,07,04,00,38,23.60
2015,07,04,00,39,23.60
2015,07,04,00,40,23.60
2015,07,04,00,41,23.60
2015,07,04,00,42,23.60
2015,07,04,00,43,23.60
2015,07,04,00,44,23.60
2015,07,04,00,45,23.70
2015,07,04,00,46,23.70
2015,07,04,00,47,23.60
2015,07,04,00,48,23.60
2015,07,04,00,49,23.60
2015,07,04,00,50,23.60
2015,07,04,00,51,23.50
2015,07,04,00,52,23.50
2015,07,04,00,53,23.40
2015,07,04,00,54,23.40
2015,07,04,00,55,23.40
2015,07,04,00,56,23.40
2015,07,04,00,57,23.40
2015,07,04,00,58,23.40
2015,07,04,00,59,23.30
2015,07,04,01,00,23.30
2015,07,04,01,01,23.30
2015,07,04,01,02,23.30
2015,07,04,01,03,23.30
2015,07,04,01,04,23.30
2015,07,04,01,05,23.30
2015,07,04,01,06,23.30
2015,07,04,01,07,23.30
2015,07,04,01,08,23.30
2015,07,04,01,09,23.30
2015,07,04,01,10,23.30
2015,07,04,01,11,23.30
2015,07,04,01,12,23.30
2015,07,04,01,13,23.30
2015,07,04,01,14,23.30
2015,07,04,01,15,23.30
2015,07,04,01,16,23.40
2015,07,04,01,17,23.40
2015,07,04,01,18,23.40
2015,07,04,01,19,23.30
2015,07,04,01,20,23.30
2015,07,04,01,21,23.30
2015,07,04,01,22,23.30
2015,07,04,01,23,23.30
2015,07,04,01,24,23.30
2015,07,04,01,25,23.40
2015,07,04,01,26,23.40
2015,07,04,01,27,23.40
2015,07,04,01,28,23.40
2015,07,04,01,29,23.40
2015,07,04,01,30,23.40
2015,07,04,01,31,23.40
2015,07,04,01,32,23.40
2015,07,04,01,33,23.40
2015,07,04,01,34,23.40
2015,07,04,01,35,23.40
2015,07,04,01,36,23.40
2015,07,04,01,37,23.40
2015,07,04,01,38,23.40
2015,07,04,01,39,23.40
2015,07,04,01,40,23.50
2015,07,04,01,41,23.50
2015,07,04,01,42,23.50
2015,07,04,01,43,23.60
2015,07,04,01,44,23.60
2015,07,04,01,45,23.60
2015,07,04,01,46,23.60
2015,07,04,01,47,23.60
2015,07,04,01,48,23.60
2015,07,04,01,49,23.60
2015,07,04,01,50,23.70
2015,07,04,01,51,23.70
2015,07,04,01,52,23.70
2015,07,04,01,53,23.70
2015,07,04,01,54,23.70
2015,07,04,01,55,23.70
2015,07,04,01,56,23.70
2015,07,04,01,57,23.70
2015,07,04,01,58,23.70
2015,07,04,01,59,23.70
2015,07,04,02,00,23.60
2015,07,04,02,01,23.60
2015,07,04,02,02,23.60
2015,07,04,02,03,23.60
2015,07,04,02,04,23.60
2015,07,04,02,05,23.60
2015,07,04,02,06,23.60
2015,07,04,02,07,23.50
2015,07,04,02,08,23.50
2015,07,04,02,09,23.50
2015,07,04,02,10,23.40
2015,07,04,02,11,23.40
2015,07,04,02,12,23.40
2015,07,04,02,13,23.50
2015,07,04,02,14,23.50
2015,07,04,02,15,23.50
2015,07,04,02,16,23.50
2015,07,04,02,17,23.60
2015,07,04,02,18,23.60
2015,07,04,02,19,23.60
2015,07,04,02,20,23.60
2015,07,04,02,21,23.60
2015,07,04,02,22,23.60
2015,07,04,02,23,23.60
2015,07,04,02,24,23.60
2015,07,04,02,25,23.60
2015,07,04,02,26,23.60
2015,07,04,02,27,23.60
2015,07,04,02,28,23.60
2015,07,04,02,29,23.60
2015,07,04,02,30,23.50
2015,07,04,02,31,23.50
2015,07,04,02,32,23.50
2015,07,04,02,33,23.50
2015,07,04,02,34,23.50
2015,07,04,02,35,23.50
2015,07,04,02,36,23.50
2015,07,04,02,37,23.40
2015,07,04,02,38,23.40
2015,07,04,02,39,23.40
2015,07,04,02,40,23.40
2015,07,04,02,41,23.40
2015,07,04,02,42,23.40
2015,07,04,02,43,23.40
2015,07,04,02,44,23.40
2015,07,04,02,45,23.40
2015,07,04,02,46,23.40
2015,07,04,02,47,23.40
2015,07,04,02,48,23.40
2015,07,04,02,49,23.40
2015,07,04,02,50,23.30
2015,07,04,02,51,23.30
2015,07,04,02,52,23.30
2015,07,04,02,53,23.30
2015,07,04,02,54,23.20
2015,07,04,02,55,23.20
2015,07,04,02,56,23.10
2015,07,04,02,57,23.10
2015,07,04,02,58,23.10
2015,07,04,02,59,23.00
2015,07,04,03,00,23.00
2015,07,04,03,01,23.00
2015,07,04,03,02,22.90
2015,07,04,03,03,22.90
2015,07,04,03,04,22.90
2015,07,04,03,05,22.90
2015,07,04,03,06,22.90
2015,07,04,03,07,22.80
2015,07,04,03,08,22.80
2015,07,04,03,09,22.80
2015,07,04,03,10,22.80
2015,07,04,03,11,22.80
2015,07,04,03,12,22.80
2015,07,04,03,13,22.80
2015,07,04,03,14,22.80
2015,07,04,03,15,22.80
2015,07,04,03,16,22.80
2015,07,04,03,17,22.80
2015,07,04,03,18,22.80
2015,07,04,03,19,22.80
2015,07,04,03,20,22.80
2015,07,04,03,21,22.80
2015,07,04,03,22,22.80
2015,07,04,03,23,22.80
2015,07,04,03,24,22.90
2015,07,04,03,25,22.90
2015,07,04,03,26,22.90
2015,07,04,03,27,22.90
2015,07,04,03,28,22.80
2015,07,04,03,29,22.80
2015,07,04,03,30,22.80
2015,07,04,03,31,22.80
2015,07,04,03,32,22.80
2015,07,04,03,33,22.80
2015,07,04,03,34,22.70
2015,07,04,03,35,22.70
2015,07,04,03,36,22.60
2015,07,04,03,37,22.60
2015,07,04,03,38,22.60
2015,07,04,03,39,22.50
2015,07,04,03,40,22.50
2015,07,04,03,41,22.40
2015,07,04,03,42,22.40
2015,07,04,03,43,22.40
2015,07,04,03,44,22.40
2015,07,04,03,45,22.40
2015,07,04,03,46,22.30
2015,07,04,03,47,22.30
2015,07,04,03,48,22.30
2015,07,04,03,49,22.30
2015,07,04,03,50,22.30
2015,07,04,03,51,22.20
2015,07,04,03,52,22.20
2015,07,04,03,53,22.20
2015,07,04,03,54,22.20
2015,07,04,03,55,22.20
2015,07,04,03,56,22.20
2015,07,04,03,57,22.20
2015,07,04,03,58,22.10
2015,07,04,03,59,22.10
2015,07,04,04,00,22.10
2015,07,04,04,01,22.00
2015,07,04,04,02,22.00
2015,07,04,04,03,21.90
2015,07,04,04,04,21.90
2015,07,04,04,05,21.90
2015,07,04,04,06,21.90
2015,07,04,04,07,21.90
2015,07,04,04,08,21.90
2015,07,04,04,09,21.80
2015,07,04,04,10,21.80
2015,07,04,04,11,21.80
2015,07,04,04,12,21.80
2015,07,04,04,13,21.80
2015,07,04,04,14,21.80
2015,07,04,04,15,21.80
2015,07,04,04,16,21.80
2015,07,04,04,17,21.70
2015,07,04,04,18,21.70
2015,07,04,04,19,21.70
2015,07,04,04,20,21.70
2015,07,04,04,21,21.60
2015,07,04,04,22,21.60
2015,07,04,04,23,21.60
2015,07,04,04,24,21.60
2015,07,04,04,25,21.60
2015,07,04,04,26,21.60
2015,07,04,04,27,21.60
2015,07,04,04,28,21.70
2015,07,04,04,29,21.70
2015,07,04,04,30,21.70
2015,07,04,04,31,21.70
2015,07,04,04,32,21.70
2015,07,04,04,33,21.80
2015,07,04,04,34,21.80
2015,07,04,04,35,21.80
2015,07,04,04,36,21.80
2015,07,04,04,37,21.80
2015,07,04,04,38,21.80
2015,07,04,04,39,21.80
2015,07,04,04,40,21.80
2015,07,04,04,41,21.80
2015,07,04,04,42,21.80
2015,07,04,04,43,21.80
2015,07,04,04,44,21.80
2015,07,04,04,45,21.80
2015,07,04,04,46,21.80
2015,07,04,04,47,21.80
2015,07,04,04,48,21.80
2015,07,04,04,49,21.80
2015,07,04,04,50,21.70
2015,07,04,04,51,21.70
2015,07,04,04,52,21.70
2015,07,04,04,53,21.70
2015,07,04,04,54,21.70
2015,07,04,04,55,21.60
2015,07,04,04,56,21.60
2015,07,04,04,57,21.60
2015,07,04,04,58,21.50
2015,07,04,04,59,21.50
2015,07,04,05,00,21.40
2015,07,04,05,01,21.40
2015,07,04,05,02,21.30
2015,07,04,05,03,21.30
2015,07,04,05,04,21.20
2015,07,04,05,05,21.20
2015,07,04,05,06,21.10
2015,07,04,05,07,21.10
2015,07,04,05,08,21.10
2015,07,04,05,09,21.00
2015,07,04,05,10,21.00
2015,07,04,05,11,20.90
2015,07,04,05,12,20.90
2015,07,04,05,13,20.90
2015,07,04,05,14,20.90
2015,07,04,05,15,20.90
2015,07,04,05,16,20.90
2015,07,04,05,17,20.90
2015,07,04,05,18,20.90
2015,07,04,05,19,20.80
2015,07,04,05,20,20.80
2015,07,04,05,21,20.80
2015,07,04,05,22,20.80
2015,07,04,05,23,20.80
2015,07,04,05,24,20.90
2015,07,04,05,25,20.90
2015,07,04,05,26,20.90
2015,07,04,05,27,20.90
2015,07,04,05,28,21.00
2015,07,04,05,29,21.00
2015,07,04,05,30,21.00
2015,07,04,05,31,21.00
2015,07,04,05,32,21.10
2015,07,04,05,33,21.10
2015,07,04,05,34,21.10
2015,07,04,05,35,21.10
2015,07,04,05,36,21.10
2015,07,04,05,37,21.10
2015,07,04,05,38,21.10
2015,07,04,05,39,21.10
2015,07,04,05,40,21.20
2015,07,04,05,41,21.20
2015,07,04,05,42,21.20
2015,07,04,05,43,21.20
2015,07,04,05,44,21.30
2015,07,04,05,45,21.30
2015,07,04,05,46,21.30
2015,07,04,05,47,21.30
2015,07,04,05,48,21.40
2015,07,04,05,49,21.40
2015,07,04,05,50,21.40
2015,07,04,05,51,21.40
2015,07,04,05,52,21.40
2015,07,04,05,53,21.50
2015,07,04,05,54,21.50
2015,07,04,05,55,21.50
2015,07,04,05,56,21.50
2015,07,04,05,57,21.60
2015,07,04,05,58,21.60
2015,07,04,05,59,21.60
2015,07,04,06,00,21.60
2015,07,04,06,01,21.60
2015,07,04,06,02,21.70
2015,07,04,06,03,21.70
2015,07,04,06,04,21.70
2015,07,04,06,05,21.70
2015,07,04,06,06,21.70
2015,07,04,06,07,21.70
2015,07,04,06,08,21.70
2015,07,04,06,09,21.70
2015,07,04,06,10,21.60
2015,07,04,06,11,21.60
2015,07,04,06,12,21.60
2015,07,04,06,13,21.60
2015,07,04,06,14,21.60
2015,07,04,06,15,21.60
2015,07,04,06,16,21.60
2015,07,04,06,17,21.60
2015,07,04,06,18,21.60
2015,07,04,06,19,21.70
2015,07,04,06,20,21.70
2015,07,04,06,21,21.70
2015,07,04,06,22,21.80
2015,07,04,06,23,21.80
2015,07,04,06,24,21.80
2015,07,04,06,25,21.80
2015,07,04,06,26,21.80
2015,07,04,06,27,21.90
2015,07,04,06,28,21.90
2015,07,04,06,29,21.90
2015,07,04,06,30,22.00
2015,07,04,06,31,22.00
2015,07,04,06,32,22.10
2015,07,04,06,33,22.10
2015,07,04,06,34,22.10
2015,07,04,06,35,22.10
2015,07,04,06,36,22.20
2015,07,04,06,37,22.20
2015,07,04,06,38,22.20
2015,07,04,06,39,22.20
2015,07,04,06,40,22.20
2015,07,04,06,41,22.20
2015,07,04,06,42,22.20
2015,07,04,06,43,22.20
2015,07,04,06,44,22.30
2015,07,04,06,45,22.30
2015,07,04,06,46,22.30
2015,07,04,06,47,22.30
2015,07,04,06,48,22.30
2015,07,04,06,49,22.30
2015,07,04,06,50,22.30
2015,07,04,06,51,22.30
2015,07,04,06,52,22.40
2015,07,04,06,53,22.40
2015,07,04,06,54,22.30
2015,07,04,06,55,22.30
2015,07,04,06,56,22.30
2015,07,04,06,57,22.30
2015,07,04,06,58,22.30
2015,07,04,06,59,22.30
2015,07,04,07,00,22.30
2015,07,04,07,01,22.20
2015,07,04,07,02,22.20
2015,07,04,07,03,22.10
2015,07,04,07,04,22.10
2015,07,04,07,05,22.00
2015,07,04,07,06,22.00
2015,07,04,07,07,22.00
2015,07,04,07,08,22.00
2015,07,04,07,09,22.00
2015,07,04,07,10,22.10
2015,07,04,07,11,22.10
2015,07,04,07,12,22.10
2015,07,04,07,13,22.20
2015,07,04,07,14,22.20
2015,07,04,07,15,22.20
2015,07,04,07,16,22.20
2015,07,04,07,17,22.30
2015,07,04,07,18,22.30
2015,07,04,07,19,22.40
2015,07,04,07,20,22.40
2015,07,04,07,21,22.50
2015,07,04,07,22,22.50
2015,07,04,07,23,22.60
2015,07,04,07,24,22.60
2015,07,04,07,25,22.60
2015,07,04,07,26,22.60
2015,07,04,07,27,22.60
2015,07,04,07,28,22.50
2015,07,04,07,29,22.50
2015,07,04,07,30,22.60
2015,07,04,07,31,22.60
2015,07,04,07,32,22.60
2015,07,04,07,33,22.60
2015,07,04,07,34,22.60
2015,07,04,07,35,22.70
2015,07,04,07,36,22.70
2015,07,04,07,37,22.70
2015,07,04,07,38,22.70
2015,07,04,07,39,22.70
2015,07,04,07,40,22.70
2015,07,04,07,41,22.80
2015,07,04,07,42,22.80
2015,07,04,07,43,22.80
2015,07,04,07,44,22.80
2015,07,04,07,45,22.80
2015,07,04,07,46,22.80
2015,07,04,07,47,22.80
2015,07,04,07,48,22.80
2015,07,04,07,49,22.80
2015,07,04,07,50,22.80
2015,07,04,07,51,22.80
2015,07,04,07,52,22.70
2015,07,04,07,53,22.70
2015,07,04,07,54,22.80
2015,07,04,07,55,22.80
2015,07,04,07,56,22.80
2015,07,04,07,57,22.80
2015,07,04,07,58,22.80
2015,07,04,07,59,22.80
2015,07,04,08,00,22.80
2015,07,04,08,01,22.80
2015,07,04,08,02,22.70
2015,07,04,08,03,22.70
2015,07,04,08,04,22.80
2015,07,04,08,05,22.80
2015,07,04,08,06,22.90
2015,07,04,08,07,23.00
2015,07,04,08,08,23.00
2015,07,04,08,09,23.00
2015,07,04,08,10,23.10
2015,07,04,08,11,23.00
2015,07,04,08,12,23.10
2015,07,04,08,13,23.10
2015,07,04,08,14,23.10
2015,07,04,08,15,23.10
2015,07,04,08,16,23.20
2015,07,04,08,17,23.20
2015,07,04,08,18,23.20
2015,07,04,08,19,23.20
2015,07,04,08,20,23.20
2015,07,04,08,21,23.20
2015,07,04,08,22,23.20
2015,07,04,08,23,23.20
2015,07,04,08,24,23.20
2015,07,04,08,25,23.20
2015,07,04,08,26,23.10
2015,07,04,08,27,23.10
2015,07,04,08,28,23.10
2015,07,04,08,29,23.10
2015,07,04,08,30,23.10
2015,07,04,08,31,23.20
2015,07,04,08,32,23.20
2015,07,04,08,33,23.20
2015,07,04,08,34,23.20
2015,07,04,08,35,23.30
2015,07,04,08,36,23.30
2015,07,04,08,37,23.30
2015,07,04,08,38,23.30
2015,07,04,08,39,23.30
2015,07,04,08,40,23.30
2015,07,04,08,41,23.30
2015,07,04,08,42,23.30
2015,07,04,08,43,23.30
2015,07,04,08,44,23.40
2015,07,04,08,45,23.40
2015,07,04,08,46,23.40
2015,07,04,08,47,23.40
2015,07,04,08,48,23.40
2015,07,04,08,49,23.40
2015,07,04,08,50,23.40
2015,07,04,08,51,23.50
2015,07,04,08,52,23.60
2015,07,04,08,53,23.60
2015,07,04,08,54,23.70
2015,07,04,08,55,23.70
2015,07,04,08,56,23.80
2015,07,04,08,57,23.70
2015,07,04,08,58,23.70
2015,07,04,08,59,23.70
2015,07,04,09,00,23.70
2015,07,04,09,01,23.70
2015,07,04,09,02,23.70
2015,07,04,09,03,23.70
2015,07,04,09,04,23.70
2015,07,04,09,05,23.70
2015,07,04,09,06,23.60
2015,07,04,09,07,23.60
2015,07,04,09,08,23.60
2015,07,04,09,09,23.60
2015,07,04,09,10,23.60
2015,07,04,09,11,23.70
2015,07,04,09,12,23.70
2015,07,04,09,13,23.80
2015,07,04,09,14,23.80
2015,07,04,09,15,23.90
2015,07,04,09,16,24.00
2015,07,04,09,17,24.00
2015,07,04,09,18,24.10
2015,07,04,09,19,24.20
2015,07,04,09,20,24.20
2015,07,04,09,21,24.30
2015,07,04,09,22,24.30
2015,07,04,09,23,24.30
2015,07,04,09,24,24.40
2015,07,04,09,25,24.40
2015,07,04,09,26,24.40
2015,07,04,09,27,24.40
2015,07,04,09,28,24.40
2015,07,04,09,29,24.40
2015,07,04,09,30,24.50
2015,07,04,09,31,24.50
2015,07,04,09,32,24.50
2015,07,04,09,33,24.60
2015,07,04,09,34,24.60
2015,07,04,09,35,24.70
2015,07,04,09,36,24.70
2015,07,04,09,37,24.70
2015,07,04,09,38,24.70
2015,07,04,09,39,24.80
2015,07,04,09,40,24.80
2015,07,04,09,41,24.70
2015,07,04,09,42,24.60
2015,07,04,09,43,24.60
2015,07,04,09,44,24.60
2015,07,04,09,45,24.70
2015,07,04,09,46,24.70
2015,07,04,09,47,24.80
2015,07,04,09,48,24.80
2015,07,04,09,49,24.80
2015,07,04,09,50,24.80
2015,07,04,09,51,24.80
2015,07,04,09,52,24.80
2015,07,04,09,53,24.80
2015,07,04,09,54,24.80
2015,07,04,09,55,24.80
2015,07,04,09,56,24.80
2015,07,04,09,57,24.90
2015,07,04,09,58,25.00
2015,07,04,09,59,25.00
2015,07,04,10,00,25.00
2015,07,04,10,01,24.90
2015,07,04,10,02,25.00
2015,07,04,10,03,25.10
2015,07,04,10,04,25.10
2015,07,04,10,05,25.20
2015,07,04,10,06,25.20
2015,07,04,10,07,25.30
2015,07,04,10,08,25.30
2015,07,04,10,09,25.30
2015,07,04,10,10,25.30
2015,07,04,10,11,25.30
2015,07,04,10,12,25.30
2015,07,04,10,13,25.40
2015,07,04,10,14,25.40
2015,07,04,10,15,25.50
2015,07,04,10,16,25.50
2015,07,04,10,17,25.50
2015,07,04,10,18,25.60
2015,07,04,10,19,25.60
2015,07,04,10,20,25.60
2015,07,04,10,21,25.70
2015,07,04,10,22,25.70
2015,07,04,10,23,25.70
2015,07,04,10,24,25.80
2015,07,04,10,25,25.80
2015,07,04,10,26,25.70
2015,07,04,10,27,25.70
2015,07,04,10,28,25.70
2015,07,04,10,29,25.60
2015,07,04,10,30,25.60
2015,07,04,10,31,25.60
2015,07,04,10,32,25.60
2015,07,04,10,33,25.60
2015,07,04,10,34,25.50
2015,07,04,10,35,25.50
2015,07,04,10,36,25.50
2015,07,04,10,37,25.50
2015,07,04,10,38,25.60
2015,07,04,10,39,25.60
2015,07,04,10,40,25.70
2015,07,04,10,41,25.70
2015,07,04,10,42,25.70
2015,07,04,10,43,25.70
2015,07,04,10,44,25.70
2015,07,04,10,45,25.80
2015,07,04,10,46,25.90
2015,07,04,10,47,25.90
2015,07,04,10,48,25.90
2015,07,04,10,49,25.90
2015,07,04,10,50,25.90
2015,07,04,10,51,25.90
2015,07,04,10,52,26.00
2015,07,04,10,53,26.10
2015,07,04,10,54,26.10
2015,07,04,10,55,26.00
2015,07,04,10,56,26.00
2015,07,04,10,57,25.90
2015,07,04,10,58,25.90
2015,07,04,10,59,25.90
2015,07,04,11,00,25.80
2015,07,04,11,01,25.70
2015,07,04,11,02,25.70
2015,07,04,11,03,25.70
2015,07,04,11,04,25.60
2015,07,04,11,05,25.60
2015,07,04,11,06,25.60
2015,07,04,11,07,25.60
2015,07,04,11,08,25.60
2015,07,04,11,09,25.60
2015,07,04,11,10,25.60
2015,07,04,11,11,25.70
2015,07,04,11,12,25.70
2015,07,04,11,13,25.80
2015,07,04,11,14,25.80
2015,07,04,11,15,25.80
2015,07,04,11,16,25.80
2015,07,04,11,17,25.90
2015,07,04,11,18,25.90
2015,07,04,11,19,25.90
2015,07,04,11,20,25.90
2015,07,04,11,21,25.90
2015,07,04,11,22,25.90
2015,07,04,11,23,26.00
2015,07,04,11,24,26.10
2015,07,04,11,25,26.10
2015,07,04,11,26,26.20
2015,07,04,11,27,26.20
2015,07,04,11,28,26.30
2015,07,04,11,29,26.40
2015,07,04,11,30,26.40
2015,07,04,11,31,26.50
2015,07,04,11,32,26.50
2015,07,04,11,33,26.50
2015,07,04,11,34,26.50
2015,07,04,11,35,26.50
2015,07,04,11,36,26.60
2015,07,04,11,37,26.60
2015,07,04,11,38,26.60
2015,07,04,11,39,26.60
2015,07,04,11,40,26.60
2015,07,04,11,41,26.60
2015,07,04,11,42,26.60
2015,07,04,11,43,26.60
2015,07,04,11,44,26.60
2015,07,04,11,45,26.60
2015,07,04,11,46,26.60
2015,07,04,11,47,26.70
2015,07,04,11,48,26.70
2015,07,04,11,49,26.70
2015,07,04,11,50,26.60
2015,07,04,11,51,26.60
2015,07,04,11,52,26.60
2015,07,04,11,53,26.60
2015,07,04,11,54,26.70
2015,07,04,11,55,26.80
2015,07,04,11,56,26.80
2015,07,04,11,57,26.80
2015,07,04,11,58,26.80
2015,07,04,11,59,26.70
2015,07,04,12,00,26.70
2015,07,04,12,01,26.80
2015,07,04,12,02,26.80
2015,07,04,12,03,26.80
2015,07,04,12,04,26.70
2015,07,04,12,05,26.70
2015,07,04,12,06,26.70
2015,07,04,12,07,26.70
2015,07,04,12,08,26.70
2015,07,04,12,09,26.70
2015,07,04,12,10,26.80
2015,07,04,12,11,26.90
2015,07,04,12,12,27.00
2015,07,04,12,13,27.20
2015,07,04,12,14,27.30
2015,07,04,12,15,27.30
2015,07,04,12,16,27.40
2015,07,04,12,17,27.50
2015,07,04,12,18,27.50
2015,07,04,12,19,27.60
2015,07,04,12,20,27.70
2015,07,04,12,21,27.70
2015,07,04,12,22,27.80
2015,07,04,12,23,27.80
2015,07,04,12,24,27.90
2015,07,04,12,25,27.90
2015,07,04,12,26,27.90
2015,07,04,12,27,27.90
2015,07,04,12,28,28.00
2015,07,04,12,29,28.00
2015,07,04,12,30,27.90
2015,07,04,12,31,27.80
2015,07,04,12,32,27.70
2015,07,04,12,33,27.70
2015,07,04,12,34,27.70
2015,07,04,12,35,27.70
2015,07,04,12,36,27.70
2015,07,04,12,37,27.70
2015,07,04,12,38,27.80
2015,07,04,12,39,27.90
2015,07,04,12,40,28.00
2015,07,04,12,41,28.10
2015,07,04,12,42,28.20
2015,07,04,12,43,28.20
2015,07,04,12,44,28.20
2015,07,04,12,45,28.20
2015,07,04,12,46,28.20
2015,07,04,12,47,28.10
2015,07,04,12,48,28.10
2015,07,04,12,49,28.00
2015,07,04,12,50,28.00
2015,07,04,12,51,28.10
2015,07,04,12,52,28.20
2015,07,04,12,53,28.20
2015,07,04,12,54,28.20
2015,07,04,12,55,28.30
2015,07,04,12,56,28.30
2015,07,04,12,57,28.30
2015,07,04,12,58,28.20
2015,07,04,12,59,28.30
2015,07,04,13,00,28.30
2015,07,04,13,01,28.30
2015,07,04,13,02,28.40
2015,07,04,13,03,28.40
2015,07,04,13,04,28.50
2015,07,04,13,05,28.60
2015,07,04,13,06,28.70
2015,07,04,13,07,28.70
2015,07,04,13,08,28.70
2015,07,04,13,09,28.80
2015,07,04,13,10,28.80
2015,07,04,13,11,28.80
2015,07,04,13,12,28.80
2015,07,04,13,13,28.90
2015,07,04,13,14,29.00
2015,07,04,13,15,29.00
2015,07,04,13,16,29.00
2015,07,04,13,17,28.90
2015,07,04,13,18,28.90
2015,07,04,13,19,28.90
2015,07,04,13,20,28.80
2015,07,04,13,21,28.80
2015,07,04,13,22,28.70
2015,07,04,13,23,28.80
2015,07,04,13,24,28.80
2015,07,04,13,25,28.90
2015,07,04,13,26,28.90
2015,07,04,13,27,28.90
2015,07,04,13,28,28.80
2015,07,04,13,29,28.70
2015,07,04,13,30,28.70
2015,07,04,13,31,28.80
2015,07,04,13,32,28.80
2015,07,04,13,33,28.90
2015,07,04,13,34,29.00
2015,07,04,13,35,29.10
2015,07,04,13,36,29.20
2015,07,04,13,37,29.20
2015,07,04,13,38,29.20
2015,07,04,13,39,29.30
2015,07,04,13,40,29.30
2015,07,04,13,41,29.30
2015,07,04,13,42,29.20
2015,07,04,13,43,29.10
2015,07,04,13,44,29.00
2015,07,04,13,45,29.00
2015,07,04,13,46,29.00
2015,07,04,13,47,28.90
2015,07,04,13,48,28.90
2015,07,04,13,49,28.80
2015,07,04,13,50,28.80
2015,07,04,13,51,28.70
2015,07,04,13,52,28.70
2015,07,04,13,53,28.80
2015,07,04,13,54,28.80
2015,07,04,13,55,28.80
2015,07,04,13,56,28.80
2015,07,04,13,57,28.80
2015,07,04,13,58,28.80
2015,07,04,13,59,28.80
2015,07,04,14,00,28.90
2015,07,04,14,01,28.90
2015,07,04,14,02,28.90
2015,07,04,14,03,29.00
2015,07,04,14,04,29.10
2015,07,04,14,05,29.20
2015,07,04,14,06,29.20
2015,07,04,14,07,29.20
2015,07,04,14,08,29.20
2015,07,04,14,09,29.30
2015,07,04,14,10,29.30
2015,07,04,14,11,29.30
2015,07,04,14,12,29.40
2015,07,04,14,13,29.40
2015,07,04,14,14,29.40
2015,07,04,14,15,29.50
2015,07,04,14,16,29.50
2015,07,04,14,17,29.50
2015,07,04,14,18,29.50
2015,07,04,14,19,29.40
2015,07,04,14,20,29.30
2015,07,04,14,21,29.30
2015,07,04,14,22,29.30
2015,07,04,14,23,29.40
2015,07,04,14,24,29.50
2015,07,04,14,25,29.60
2015,07,04,14,26,29.60
2015,07,04,14,27,29.50
2015,07,04,14,28,29.50
2015,07,04,14,29,29.60
2015,07,04,14,30,29.60
2015,07,04,14,31,29.60
2015,07,04,14,32,29.70
2015,07,04,14,33,29.70
2015,07,04,14,34,29.70
2015,07,04,14,35,29.80
2015,07,04,14,36,29.80
2015,07,04,14,37,29.80
2015,07,04,14,38,29.70
2015,07,04,14,39,29.70
2015,07,04,14,40,29.70
2015,07,04,14,41,29.60
2015,07,04,14,42,29.60
2015,07,04,14,43,29.60
2015,07,04,14,44,29.70
2015,07,04,14,45,29.70
2015,07,04,14,46,29.70
2015,07,04,14,47,29.60
2015,07,04,14,48,29.60
2015,07,04,14,49,29.60
2015,07,04,14,50,29.60
2015,07,04,14,51,29.70
2015,07,04,14,52,29.70
2015,07,04,14,53,29.70
2015,07,04,14,54,29.70
2015,07,04,14,55,29.70
2015,07,04,14,56,29.80
2015,07,04,14,57,29.80
2015,07,04,14,58,29.80
2015,07,04,14,59,29.80
2015,07,04,15,00,29.80
2015,07,04,15,01,29.90
2015,07,04,15,02,29.90
2015,07,04,15,03,30.00
2015,07,04,15,04,30.00
2015,07,04,15,05,30.10
2015,07,04,15,06,30.10
2015,07,04,15,07,30.10
2015,07,04,15,08,30.10
2015,07,04,15,09,30.20
2015,07,04,15,10,30.20
2015,07,04,15,11,30.20
2015,07,04,15,12,30.20
2015,07,04,15,13,30.10
2015,07,04,15,14,30.00
2015,07,04,15,15,29.90
2015,07,04,15,16,29.80
2015,07,04,15,17,29.80
2015,07,04,15,18,29.80
2015,07,04,15,19,29.90
2015,07,04,15,20,29.90
2015,07,04,15,21,29.90
2015,07,04,15,22,29.90
2015,07,04,15,23,29.90
2015,07,04,15,24,29.90
2015,07,04,15,25,29.80
2015,07,04,15,26,29.80
2015,07,04,15,27,29.70
2015,07,04,15,28,29.70
2015,07,04,15,29,29.70
2015,07,04,15,30,29.80
2015,07,04,15,31,29.80
2015,07,04,15,32,29.90
2015,07,04,15,33,30.00
2015,07,04,15,34,30.10
2015,07,04,15,35,30.20
2015,07,04,15,36,30.20
2015,07,04,15,37,30.20
2015,07,04,15,38,30.20
2015,07,04,15,39,30.10
2015,07,04,15,40,30.00
2015,07,04,15,41,30.00
2015,07,04,15,42,29.90
2015,07,04,15,43,30.00
2015,07,04,15,44,30.00
2015,07,04,15,45,30.00
2015,07,04,15,46,30.00
2015,07,04,15,47,29.90
2015,07,04,15,48,29.90
2015,07,04,15,49,29.90
2015,07,04,15,50,29.90
2015,07,04,15,51,29.90
2015,07,04,15,52,30.00
2015,07,04,15,53,30.10
2015,07,04,15,54,30.20
2015,07,04,15,55,30.30
2015,07,04,15,56,30.30
2015,07,04,15,57,30.40
2015,07,04,15,58,30.50
2015,07,04,15,59,30.50
2015,07,04,16,00,30.60
2015,07,04,16,01,30.60
2015,07,04,16,02,30.60
2015,07,04,16,03,30.60
2015,07,04,16,04,30.60
2015,07,04,16,05,30.60
2015,07,04,16,06,30.70
2015,07,04,16,07,30.60
2015,07,04,16,08,30.70
2015,07,04,16,09,30.70
2015,07,04,16,10,30.70
2015,07,04,16,11,30.80
2015,07,04,16,12,30.80
2015,07,04,16,13,30.80
2015,07,04,16,14,30.80
2015,07,04,16,15,30.80
2015,07,04,16,16,30.80
2015,07,04,16,17,30.80
2015,07,04,16,18,30.80
2015,07,04,16,19,30.80
2015,07,04,16,20,30.80
2015,07,04,16,21,30.80
2015,07,04,16,22,30.80
2015,07,04,16,23,30.80
2015,07,04,16,24,30.70
2015,07,04,16,25,30.70
2015,07,04,16,26,30.70
2015,07,04,16,27,30.80
2015,07,04,16,28,30.80
2015,07,04,16,29,30.90
2015,07,04,16,30,31.00
2015,07,04,16,31,31.10
2015,07,04,16,32,31.10
2015,07,04,16,33,31.20
2015,07,04,16,34,31.30
2015,07,04,16,35,31.30
2015,07,04,16,36,31.30
2015,07,04,16,37,31.30
2015,07,04,16,38,31.30
2015,07,04,16,39,31.30
2015,07,04,16,40,31.20
2015,07,04,16,41,31.20
2015,07,04,16,42,31.20
2015,07,04,16,43,31.20
2015,07,04,16,44,31.30
2015,07,04,16,45,31.30
2015,07,04,16,46,31.30
2015,07,04,16,47,31.20
2015,07,04,16,48,31.20
2015,07,04,16,49,31.20
2015,07,04,16,50,31.20
2015,07,04,16,51,31.20
2015,07,04,16,52,31.20
2015,07,04,16,53,31.10
2015,07,04,16,54,31.00
2015,07,04,16,55,31.00
2015,07,04,16,56,30.90
2015,07,04,16,57,31.00
2015,07,04,16,58,31.10
2015,07,04,16,59,31.10
2015,07,04,17,00,31.10
2015,07,04,17,01,31.10
2015,07,04,17,02,31.20
2015,07,04,17,03,31.20
2015,07,04,17,04,31.20
2015,07,04,17,05,31.20
2015,07,04,17,06,31.20
2015,07,04,17,07,31.20
2015,07,04,17,08,31.20
2015,07,04,17,09,31.20
2015,07,04,17,10,31.20
2015,07,04,17,11,31.10
2015,07,04,17,12,31.10
2015,07,04,17,13,31.20
2015,07,04,17,14,31.20
2015,07,04,17,15,31.20
2015,07,04,17,16,31.20
2015,07,04,17,17,31.30
2015,07,04,17,18,31.40
2015,07,04,17,19,31.40